Flag for Germany Weather past 2 weeks in Neuburg an der Donau, Bavaria, Germany

Now
32 °F

Chilly.


Feels Like: 29 °F
Forecast: 31 / 58 °F
Wind: 3 mph from Northeast

Location: Neuburg / Donau

Current Time: Apr 19, 2015 at 7:22:19 AM

Latest Report: Apr 19, 2015 at 6:20 AM


Visibility: N/A

Pressure: 30.15 "Hg

Humidity: 80%

Dew point: 27 °F

Location of Neuburg an der DonauLocation

Historic Weather in Neuburg an der Donau — Graph

°F

Neuburg an der Donau temperature yesterday

Maximum temperature yesterday: 50 °F (at 3:20 PM)
Minimum temperature yesterday: 36 °F (at 6:20 AM)
Average temperature yesterday: 44 °F

Past Weeks' High & Low Weather Summary

 TemperatureHumidityPressure
High73 °F (Apr 15, 4:20 PM)100% (Apr 9, 5:20 AM)30.60 "Hg (Apr 9, 5:20 AM)
Low25 °F (Apr 7, 6:20 AM)22% (Apr 15, 6:20 PM)29.86 "Hg (Apr 17, 5:20 AM)
Average48 °F65%30.22 "Hg
* Reported Apr 4 5:20 AM — Apr 19 5:20 AM, Neuburg an der Donau, Weather by CustomWeather, © 2015

Note: Actual official high and low records may vary slightly from our data, if they occured in-between our weather recording intervals... More about our weather records

Advertising

Neuburg an der Donau weather history for previous 24 hours

 ConditionsComfort  
Time TempWeatherWind HumidityBarometerVisibility
5:20 AM
Sun, Apr 19
32 °FChilly.5 mph80%30.15 "HgN/A
4:20 AM32 °FChilly.1 mph80%30.18 "HgN/A
3:20 AM32 °FChilly.2 mph80%30.21 "HgN/A
2:20 AMN/A2 mphN/AN/AN/A
1:20 AM36 °FChilly.2 mph75%30.21 "HgN/A
12:20 AM37 °FChilly.3 mph70%30.21 "HgN/A
11:20 PM
Sat, Apr 18
37 °FChilly.5 mph70%30.21 "HgN/A
10:20 PM43 °FQuite cool.3 mph61%30.21 "HgN/A
9:20 PM43 °FQuite cool.3 mph61%30.21 "HgN/A
8:20 PM46 °FCool.2 mph50%30.21 "HgN/A
7:20 PM48 °FCool.6 mph43%30.18 "HgN/A
6:20 PM50 °FCool.8 mph37%30.21 "HgN/A
5:20 PM50 °FCool.3 mph35%30.21 "HgN/A
4:20 PM50 °FCool.8 mph37%30.21 "HgN/A
3:20 PM50 °FCool.7 mph40%30.21 "HgN/A
2:20 PM48 °FCool.9 mph46%30.21 "HgN/A
1:20 PM48 °FCool.8 mph46%30.21 "HgN/A
12:20 PM48 °FCool.7 mph46%30.21 "HgN/A
11:20 AM46 °FCool.7 mph53%30.21 "HgN/A
10:20 AM45 °FQuite cool.9 mph61%30.21 "HgN/A
9:20 AM43 °FQuite cool.10 mph61%30.18 "HgN/A
8:20 AM41 °FQuite cool.7 mph70%30.18 "HgN/A
7:20 AM39 °FChilly.7 mph70%30.15 "HgN/A
Weather by CustomWeather, © 2015

See weather overviewHow to use our weather pages